User: anonymous   Login
Location: La Savane
(18.0962°N, 63.0646°W)
Time: 01:34:07
(UTC+00:00)
Language:

Cosmos 1812 Rocket - Orbit

View from above orbital plane
View from above orbital plane
View from above satellite
View from above satellite

Ground track
Ground track

The orbit data is extracted from the following two-line orbital elements,

1 17296U 87003B   21018.87083228  .00000067  00000-0  52190-5 0  9998
2 17296  82.5281 238.0586 0018155 212.7321 147.2771 14.83317459837555
Epoch (UTC): 18 January 2021 20:53:59
Eccentricity: 0.0018155
inclination: 82.5281°
perigee height: 606 km
apogee height: 631 km
right ascension of ascending node: 238.0586°
argument of perigee: 212.7321°
revolutions per day: 14.83317459
mean anomaly at epoch: 147.2771°
orbit number at epoch: 83755

The dashed part of the orbit path shows where the satellite is in the earth's shadow,  

DLR